Total_Precipitation_Accumulation
1.84 1.73 1.69 1.72 1.87 1.58 1.41 1.47 1.51 1.58 1.78 2.05 2.02 1.44 1.22 1.29 1.39 1.35 1.09 0.67 1.08 1.33 0.65 0.16 0.12 0.13 0.11 0.18 0.32 0.18 0.47 0.62 0.65 0.92 0.66 0.34 0.14 0.02 0.02 0.00 0.00 0.03 0.08 0.17 0.26 0.56 0.21 0.00 0.00 0.00 0.00 0.00 0.00 0.00
1.71 1.94 1.93 1.93 1.83 1.60 1.51 1.54 1.65 1.64 1.72 1.96 2.07 1.84 1.68 1.51 1.54 1.81 1.61 0.72 0.81 1.36 1.12 0.24 0.07 0.06 0.09 0.14 0.28 0.46 0.47 0.27 0.37 0.64 0.65 0.43 0.31 0.14 0.04 0.02 0.00 0.00 0.01 0.01 0.04 0.04 0.00 0.00 0.00 0.00 0.00 0.00 0.00 0.01
1.41 1.63 1.87 2.01 2.22 2.18 1.89 1.67 1.47 1.32 1.31 1.55 1.96 1.84 1.87 1.98 1.86 2.07 1.46 0.96 1.37 1.99 1.24 0.59 0.22 0.04 0.03 0.07 0.17 0.50 0.61 0.35 0.43 0.43 0.78 0.72 0.65 0.29 0.16 0.07 0.01 0.00 0.00 0.00 0.00 0.00 0.00 0.00 0.00 0.00 0.00 0.00 0.00 0.02
1.40 1.40 1.58 1.70 2.06 2.34 2.16 2.05 1.99 1.62 1.31 1.29 1.49 1.70 1.74 1.99 2.05 2.18 1.75 1.03 1.27 1.75 1.46 0.56 0.09 0.04 0.02 0.03 0.10 0.21 0.25 0.24 0.33 0.59 1.02 1.02 0.70 0.31 0.18 0.08 0.05 0.01 0.00 0.00 0.00 0.00 0.00 0.00 0.00 0.00 0.00 0.00 0.00 0.00
1.34 1.55 1.52 1.61 1.68 1.94 2.58 2.33 1.73 1.54 1.67 1.60 1.55 1.49 1.68 1.94 1.86 1.64 1.23 0.90 0.78 1.30 1.40 0.45 0.19 0.08 0.05 0.05 0.13 0.20 0.34 0.60 0.83 1.16 1.31 0.70 0.27 0.25 0.20 0.12 0.05 0.00 0.01 0.00 0.00 0.00 0.00 0.00 0.00 0.00 0.00 0.00 0.00 0.00
1.59 1.52 1.88 1.80 1.55 1.45 1.63 2.18 1.82 1.60 1.69 1.81 1.44 1.66 1.76 2.07 2.84 1.96 2.18 1.67 0.99 1.05 2.29 1.28 0.52 0.12 0.14 0.14 0.28 0.34 0.46 0.73 1.12 1.03 0.83 0.54 0.22 0.32 0.51 0.16 0.00 0.00 0.00 0.00 0.00 0.00 0.00 0.00 0.00 0.00 0.00 0.00 0.00 0.00
1.92 2.10 1.95 2.16 1.88 1.50 1.42 1.69 1.64 1.51 1.60 1.47 1.46 1.56 1.93 2.56 3.02 2.33 1.29 1.25 1.21 1.54 2.60 2.00 1.12 0.39 0.36 0.52 0.57 0.75 0.65 1.01 1.11 1.13 0.82 0.45 0.31 0.77 0.85 0.18 0.00 0.00 0.00 0.00 0.00 0.00 0.00 0.00 0.00 0.00 0.00 0.00 0.00 0.00
2.45 2.55 2.71 2.32 2.19 1.61 1.41 1.58 1.29 1.38 1.65 1.60 1.68 1.72 2.61 3.60 3.54 2.30 0.78 0.53 1.18 2.65 2.64 2.33 1.39 0.66 0.79 1.01 0.87 0.92 1.08 1.38 1.49 1.14 0.55 0.39 0.42 0.73 0.63 0.02 0.01 0.02 0.02 0.01 0.01 0.00 0.00 0.00 0.00 0.00 0.00 0.00 0.00 0.00
2.59 2.72 2.56 2.40 2.45 1.71 1.55 1.76 1.40 1.30 1.55 1.99 2.71 3.76 4.76 4.22 2.95 1.98 1.43 1.24 1.63 2.55 2.53 1.51 0.82 0.73 0.83 0.96 1.00 1.03 1.42 1.55 1.28 0.98 0.36 0.41 0.58 0.59 0.12 0.04 0.06 0.08 0.15 0.18 0.19 0.12 0.05 0.02 0.02 0.02 0.02 0.01 0.01 0.02
2.49 2.44 2.09 2.23 2.20 1.83 1.80 1.69 1.43 1.35 1.83 2.80 4.42 4.65 3.86 2.79 1.77 1.85 3.50 4.05 3.70 2.94 1.82 1.01 0.72 0.78 0.97 0.84 0.92 1.01 1.12 0.91 0.96 0.45 0.34 0.62 0.28 0.09 0.09 0.16 0.22 0.25 0.33 0.38 0.54 0.45 0.33 0.21 0.07 0.04 0.07 0.10 0.09 0.08
1.72 1.70 1.43 1.40 1.24 1.19 1.27 1.22 1.25 1.82 2.77 3.41 3.94 2.95 2.15 2.35 2.26 3.46 3.98 3.16 2.31 1.54 0.79 0.54 0.61 0.60 0.54 0.74 0.80 0.99 1.30 0.90 0.88 0.62 0.51 0.45 0.42 0.61 0.44 0.39 0.36 0.29 0.25 0.25 0.33 0.48 0.47 0.38 0.35 0.20 0.15 0.17 0.25 0.24
1.56 1.46 1.27 1.38 1.12 1.07 1.22 1.33 1.60 1.97 2.10 2.35 2.35 2.26 2.63 2.78 3.67 3.69 2.71 1.32 0.65 0.36 0.35 0.72 0.77 0.59 0.59 0.69 0.99 0.87 0.86 0.74 0.73 0.93 1.14 0.57 0.67 0.31 0.39 0.56 0.35 0.24 0.32 0.25 0.25 0.39 0.28 0.25 0.31 0.37 0.26 0.19 0.18 0.26
1.69 1.39 1.31 1.56 1.39 1.32 1.25 1.34 1.68 1.88 1.86 2.38 3.31 3.79 3.76 3.84 3.27 2.04 1.13 0.65 0.35 0.43 0.55 0.62 0.73 0.82 0.98 1.25 1.23 0.78 0.85 0.43 0.34 0.67 0.73 0.56 0.25 0.20 0.33 0.31 0.27 0.37 0.60 0.50 0.28 0.31 0.37 0.37 0.34 0.43 0.42 0.21 0.16 0.15
1.75 1.58 1.65 1.77 1.52 1.33 1.38 1.87 2.57 2.42 1.95 3.02 3.51 3.46 2.63 2.39 1.06 0.58 0.42 0.34 0.24 0.24 0.26 0.31 0.47 0.70 0.99 1.22 1.10 0.94 0.47 0.47 0.72 0.72 0.52 0.28 0.19 0.18 0.14 0.13 0.17 0.18 0.35 0.51 0.52 0.55 0.58 0.66 0.67 0.62 0.63 0.56 0.47 0.32
2.13 1.87 2.00 2.06 1.62 1.52 1.92 2.63 2.53 1.88 2.39 3.06 2.83 2.00 1.26 0.65 0.54 0.50 0.47 0.28 0.18 0.26 0.36 0.51 0.70 0.59 0.80 1.41 1.09 0.64 0.62 0.80 0.81 0.53 0.29 0.11 0.06 0.09 0.06 0.05 0.08 0.15 0.29 0.33 0.28 0.37 0.46 0.58 0.73 0.59 0.51 0.46 0.36 0.31
2.81 3.21 2.99 2.46 1.89 2.14 2.62 3.00 2.96 2.60 3.05 2.72 2.03 0.96 0.34 0.22 0.29 0.29 0.32 0.31 0.26 0.31 0.46 0.87 1.14 1.06 0.84 0.93 0.83 0.61 0.62 0.63 0.52 0.23 0.10 0.06 0.05 0.08 0.06 0.04 0.08 0.22 0.24 0.38 0.51 0.29 0.27 0.42 0.39 0.27 0.23 0.31 0.33 0.30
4.35 4.22 2.74 2.24 2.46 2.73 3.00 3.39 3.65 3.33 2.89 2.50 1.19 0.36 0.25 0.27 0.40 0.42 0.50 0.62 0.66 0.81 1.08 1.32 1.30 0.80 0.87 0.73 0.52 0.34 0.44 0.34 0.23 0.14 0.10 0.11 0.18 0.22 0.15 0.09 0.10 0.18 0.18 0.33 0.57 0.40 0.39 0.57 0.61 0.51 0.35 0.24 0.23 0.29
3.57 2.26 2.06 2.36 2.69 3.10 4.21 4.11 3.59 3.49 2.65 1.15 0.43 0.29 0.27 0.34 0.39 0.49 0.62 0.81 1.09 1.38 1.51 1.72 1.13 0.94 0.52 0.36 0.24 0.19 0.18 0.22 0.26 0.31 0.30 0.26 0.22 0.20 0.19 0.18 0.13 0.21 0.29 0.46 0.68 0.49 0.54 0.64 0.58 0.46 0.45 0.43 0.37 0.39
2.82 2.02 2.26 2.42 2.70 3.24 3.74 3.58 2.93 2.38 0.97 0.39 0.27 0.29 0.31 0.31 0.39 0.51 0.62 0.81 0.88 1.00 1.34 1.68 1.53 0.75 0.29 0.27 0.26 0.23 0.28 0.39 0.45 0.37 0.32 0.30 0.25 0.22 0.26 0.26 0.23 0.21 0.23 0.36 0.43 0.45 0.51 0.50 0.46 0.51 0.44 0.38 0.38 0.37
3.91 3.69 3.37 3.52 3.03 3.27 3.44 3.04 1.92 1.03 0.58 0.32 0.31 0.35 0.30 0.31 0.38 0.48 0.65 0.83 0.93 1.28 1.62 1.33 0.58 0.32 0.39 0.34 0.38 0.44 0.35 0.38 0.49 0.45 0.33 0.39 0.37 0.31 0.30 0.29 0.29 0.27 0.24 0.28 0.37 0.44 0.61 0.57 0.56 0.59 0.53 0.51 0.49 0.45
5.18 4.79 4.73 4.59 4.78 4.07 3.05 1.92 1.11 0.61 0.38 0.35 0.42 0.32 0.35 0.37 0.44 0.52 0.59 0.72 1.16 1.37 0.88 0.46 0.39 0.41 0.36 0.38 0.44 0.48 0.41 0.49 0.61 0.69 0.62 0.58 0.51 0.52 0.51 0.33 0.25 0.22 0.25 0.30 0.36 0.47 0.67 0.61 0.58 0.61 0.56 0.58 0.65 0.64
4.58 4.25 5.70 5.80 4.94 4.22 2.86 1.51 0.74 0.52 0.37 0.43 0.39 0.40 0.49 0.50 0.51 0.61 0.63 0.84 1.02 0.62 0.46 0.51 0.55 0.55 0.44 0.48 0.59 0.64 0.66 0.59 0.57 0.59 0.59 0.62 0.59 0.58 0.63 0.53 0.37 0.32 0.35 0.47 0.56 0.62 0.63 0.64 0.69 0.74 0.62 0.73 0.75 0.75
4.08 4.65 4.85 4.71 4.28 3.57 2.28 1.01 0.54 0.45 0.43 0.49 0.42 0.46 0.48 0.45 0.48 0.53 0.69 0.68 0.56 0.58 0.57 0.59 0.63 0.74 0.68 0.67 0.63 0.65 0.73 0.69 0.55 0.52 0.53 0.55 0.55 0.57 0.62 0.64 0.67 0.67 0.62 0.75 0.80 0.76 0.72 0.75 0.71 0.60 0.59 0.56 0.50 0.66
3.84 4.78 4.97 4.45 3.16 2.28 1.57 1.22 0.88 0.57 0.62 0.53 0.46 0.38 0.30 0.33 0.44 0.52 0.47 0.41 0.50 0.53 0.48 0.55 0.59 0.58 0.49 0.47 0.52 0.63 0.78 0.78 0.65 0.57 0.60 0.65 0.51 0.48 0.53 0.59 0.68 0.80 0.77 0.74 0.76 0.70 0.62 0.65 0.70 0.67 0.58 0.56 0.53 0.47
5.53 5.97 4.45 3.78 2.29 1.22 0.81 0.64 0.51 0.42 0.40 0.35 0.30 0.26 0.25 0.33 0.41 0.48 0.37 0.40 0.44 0.48 0.50 0.53 0.52 0.62 0.66 0.54 0.53 0.58 0.68 0.88 0.80 0.70 0.67 0.79 0.75 0.61 0.53 0.51 0.53 0.61 0.71 0.59 0.56 0.48 0.50 0.57 0.62 0.59 0.62 0.51 0.45 0.43
4.99 3.23 2.14 1.11 0.71 0.32 0.25 0.26 0.26 0.18 0.16 0.24 0.27 0.25 0.28 0.41 0.52 0.42 0.36 0.42 0.42 0.46 0.49 0.51 0.54 0.48 0.46 0.62 0.72 0.65 0.67 0.85 0.93 0.72 0.59 0.76 0.89 0.86 0.69 0.62 0.51 0.52 0.68 0.56 0.48 0.38 0.47 0.48 0.47 0.48 0.66 0.69 0.46 0.42
3.86 2.45 1.12 0.34 0.19 0.20 0.19 0.15 0.14 0.17 0.22 0.23 0.23 0.23 0.36 0.55 0.34 0.28 0.37 0.41 0.43 0.41 0.48 0.55 0.65 0.63 0.56 0.51 0.56 0.63 0.80 0.98 1.09 0.89 0.83 0.78 0.74 0.79 0.85 0.76 0.53 0.53 0.70 0.66 0.62 0.47 0.42 0.42 0.37 0.27 0.35 0.47 0.49 0.36
1.90 0.68 0.41 0.40 0.35 0.30 0.33 0.26 0.24 0.23 0.23 0.20 0.24 0.31 0.44 0.33 0.20 0.24 0.30 0.35 0.42 0.44 0.51 0.62 0.66 0.70 0.72 0.74 0.75 0.77 0.83 0.92 0.92 0.84 0.72 0.66 0.70 0.66 0.71 0.67 0.67 0.69 0.67 0.60 0.52 0.55 0.49 0.42 0.36 0.32 0.32 0.34 0.45 0.43
0.57 0.29 0.23 0.31 0.30 0.27 0.26 0.22 0.17 0.14 0.14 0.15 0.15 0.13 0.13 0.13 0.22 0.28 0.29 0.32 0.32 0.36 0.41 0.48 0.43 0.55 0.63 0.66 0.71 0.84 0.91 0.90 0.79 0.69 0.61 0.55 0.48 0.50 0.61 0.63 0.66 0.68 0.68 0.77 0.76 0.62 0.55 0.48 0.51 0.52 0.51 0.50 0.53 0.58
0.15 0.10 0.11 0.15 0.20 0.22 0.19 0.22 0.22 0.25 0.29 0.27 0.20 0.14 0.13 0.21 0.31 0.33 0.30 0.27 0.28 0.29 0.35 0.40 0.41 0.43 0.48 0.50 0.55 0.61 0.73 0.80 0.81 0.65 0.51 0.43 0.48 0.71 0.72 0.68 0.72 0.80 0.71 0.62 0.87 1.02 0.83 0.78 0.82 0.75 0.64 0.59 0.51 0.48
0.03 0.03 0.03 0.06 0.09 0.12 0.15 0.14 0.14 0.14 0.20 0.20 0.20 0.23 0.24 0.27 0.31 0.31 0.24 0.26 0.30 0.30 0.30 0.28 0.30 0.38 0.46 0.51 0.60 0.59 0.59 0.66 0.67 0.57 0.50 0.49 0.52 0.56 0.63 0.69 0.71 0.72 0.74 0.71 0.63 0.63 0.61 0.54 0.51 0.50 0.47 0.48 0.44 0.40
0.04 0.06 0.03 0.05 0.12 0.14 0.12 0.09 0.06 0.05 0.06 0.10 0.15 0.19 0.23 0.24 0.21 0.16 0.15 0.13 0.15 0.19 0.30 0.37 0.38 0.42 0.58 0.68 0.75 0.85 0.94 0.78 0.61 0.51 0.46 0.46 0.45 0.49 0.55 0.61 0.69 0.70 0.70 0.68 0.65 0.66 0.55 0.56 0.60 0.55 0.55 0.57 0.55 0.46
0.18 0.14 0.13 0.13 0.17 0.19 0.16 0.11 0.10 0.10 0.10 0.08 0.09 0.12 0.14 0.13 0.11 0.11 0.12 0.19 0.30 0.33 0.34 0.41 0.50 0.64 0.72 0.79 0.81 0.79 0.74 0.67 0.70 0.68 0.63 0.57 0.54 0.56 0.62 0.65 0.65 0.62 0.56 0.57 0.63 0.66 0.65 0.61 0.62 0.56 0.52 0.52 0.52 0.47